FW7659 Weather Reports


time (UTC)temp
C
wind
direction
speed
KPH
gust
KPH
rain 1hr
cm
rain 24hr
cm
rain mn
cm
humidity
%
barometer
mb
20260506044904 18 128 0.0 0.0 0.00 0.00 0.00 52 1014.6
20260506043903 18 128 0.0 3.2 0.00 0.00 0.00 52 1015.0
20260506043404 18 128 0.0 3.2 0.00 0.00 0.00 51 1015.2
20260506042904 18 128 0.0 0.0 0.00 0.00 0.00 51 1015.2
20260506042404 18 128 0.0 3.2 0.00 0.00 0.00 52 1015.1
20260506041904 18 128 0.0 3.2 0.00 0.00 0.00 52 1015.0
20260506041403 18 128 0.0 1.6 0.00 0.00 0.00 51 1015.1
20260506040904 18 128 0.0 0.0 0.00 0.00 0.00 52 1014.9
20260506040404 18 124 0.0 0.0 0.00 0.00 0.00 52 1014.8
20260506035403 18 124 0.0 3.2 0.00 0.00 0.00 52 1014.7
20260506034903 18 124 0.0 0.0 0.00 0.00 0.00 52 1014.8
20260506034404 18 124 0.0 0.0 0.00 0.00 0.00 53 1014.8
20260506033904 18 124 0.0 0.0 0.00 0.00 0.00 51 1014.9
20260506033403 18 128 0.0 1.6 0.00 0.00 0.00 51 1015.0
20260506032904 18 136 0.0 1.6 0.00 0.00 0.00 51 1015.1
20260506032404 18 136 0.0 0.0 0.00 0.00 0.00 51 1015.1
20260506031404 18 136 0.0 3.2 0.00 0.00 0.00 52 1015.1
20260506030904 18 136 0.0 0.0 0.00 0.00 0.00 52 1015.3
20260506030403 18 136 0.0 0.0 0.00 0.00 0.00 53 1015.1
20260506025904 18 136 0.0 0.0 0.00 0.00 0.00 53 1015.3
20260506025404 18 136 0.0 3.2 0.00 0.00 0.00 52 1015.4
20260506024903 18 136 0.0 3.2 0.00 0.00 0.00 52 1015.4
20260506024403 18 128 0.0 3.2 0.00 0.00 0.00 52 1015.1
20260506023904 18 128 0.0 3.2 0.00 0.00 0.00 52 1015.0
20260506022904 18 128 0.0 3.2 0.00 0.00 0.00 54 1014.9
20260506022404 18 128 0.0 1.6 0.00 0.00 0.00 52 1015.0
20260506021904 18 128 0.0 3.2 0.00 0.00 0.00 53 1015.1
20260506020904 18 129 0.0 3.2 0.00 0.00 0.00 52 1014.9
20260506015904 18 131 0.0 0.0 0.00 0.00 0.00 52 1014.9
20260506014404 18 166 0.0 3.2 0.00 0.00 0.00 53 1014.9
20260506013403 18 170 0.0 0.0 0.00 0.00 0.00 53 1014.8
20260506011903 18 176 0.0 1.6 0.00 0.00 0.00 53 1014.5
20260506011404 18 176 0.0 3.2 0.00 0.00 0.00 53 1014.5
20260506010904 18 176 0.0 3.2 0.00 0.00 0.00 53 1014.5
20260506010403 18 176 0.0 0.0 0.00 0.00 0.00 55 1014.5
20260506005404 18 176 0.0 0.0 0.00 0.00 0.00 55 1014.5
20260506003903 18 184 0.0 3.2 0.00 0.00 0.00 55 1014.5
20260506002904 18 216 0.0 1.6 0.00 0.00 0.00 55 1014.6
20260506002404 18 216 0.0 3.2 0.00 0.00 0.00 54 1014.5
20260506001903 18 216 0.0 3.2 0.00 0.00 0.00 54 1014.3
20260506001403 18 216 0.0 1.6 0.00 0.00 0.00 55 1014.3
20260506000904 19 216 0.0 3.2 0.00 0.00 0.00 54 1014.3
20260506000404 19 216 0.0 3.2 0.00 0.00 0.00 54 1014.5
20260505234904 20 216 0.0 0.0 0.00 0.00 0.00 53 1014.6
20260505234404 20 216 0.0 3.2 0.00 0.00 0.00 53 1014.5
20260505233404 20 216 0.0 0.0 0.00 0.00 0.00 52 1014.5
20260505231403 20 216 0.0 0.0 0.00 0.00 0.00 51 1014.6
20260505230904 20 216 0.0 3.2 0.00 0.00 0.00 52 1014.7
20260505230404 20 216 0.0 3.2 0.00 0.00 0.00 52 1014.6
20260505225904 20 216 0.0 3.2 0.00 0.00 0.00 52 1014.6
20260505225403 20 216 0.0 0.0 0.00 0.00 0.00 51 1014.5
20260505224903 20 216 0.0 0.0 0.00 0.00 0.00 51 1014.5
20260505224404 20 216 0.0 0.0 0.00 0.00 0.00 52 1014.6
20260505223404 20 216 0.0 0.0 0.00 0.00 0.00 51 1014.7
20260505222904 20 216 0.0 0.0 0.00 0.00 0.00 52 1014.8
20260505222403 20 216 0.0 3.2 0.00 0.00 0.00 50 1014.9
20260505221904 20 216 0.0 1.6 0.00 0.00 0.00 51 1014.9
20260505221404 21 216 0.0 0.0 0.00 0.00 0.00 52 1014.9
20260505220404 20 216 0.0 3.2 0.00 0.00 0.00 52 1014.9
20260505215904 21 216 0.0 3.2 0.00 0.00 0.00 52 1015.0
20260505215404 21 216 0.0 3.2 0.00 0.00 0.00 48 1014.5
20260505214903 21 212 0.0 3.2 0.00 0.00 0.00 48 1014.4
20260505214403 21 212 0.0 3.2 0.00 0.00 0.00 48 1014.6
20260505213904 21 212 0.0 3.2 0.00 0.00 0.00 49 1014.7
20260505213404 21 205 1.6 3.2 0.00 0.00 0.00 49 1014.7
20260505212404 21 226 0.0 3.2 0.00 0.00 0.00 49 1014.6
20260505211904 21 226 0.0 3.2 0.00 0.00 0.00 47 1014.7
20260505210904 21 216 1.6 3.2 0.00 0.00 0.00 49 1014.7
20260505210403 21 212 0.0 4.8 0.00 0.00 0.00 48 1014.7
20260505205904 21 206 0.0 3.2 0.00 0.00 0.00 49 1014.8
20260505205403 21 206 1.6 3.2 0.00 0.00 0.00 47 1014.9
20260505204904 21 227 1.6 3.2 0.00 0.00 0.00 46 1014.8
20260505204403 21 226 1.6 3.2 0.00 0.00 0.00 47 1014.9
20260505203904 21 226 0.0 1.6 0.00 0.00 0.00 48 1014.8
20260505203403 21 226 0.0 3.2 0.00 0.00 0.00 47 1014.8
20260505202904 21 230 0.0 3.2 0.00 0.00 0.00 46 1014.7
20260505202403 21 253 0.0 3.2 0.00 0.00 0.00 47 1014.7
20260505201904 21 214 0.0 3.2 0.00 0.00 0.00 46 1015.0
20260505201404 22 247 0.0 3.2 0.00 0.00 0.00 48 1015.1
20260505200904 22 214 1.6 4.8 0.00 0.00 0.00 47 1015.0
20260505200403 21 225 0.0 1.6 0.00 0.00 0.00 47 1015.2
20260505195903 21 202 1.6 9.7 0.00 0.00 0.00 43 1015.4
20260505195404 22 249 1.6 4.8 0.00 0.00 0.00 45 1015.4
20260505194903 22 247 0.0 3.2 0.00 0.00 0.00 44 1015.3
20260505194404 22 223 0.0 3.2 0.00 0.00 0.00 43 1015.5
20260505193904 22 241 1.6 4.8 0.00 0.00 0.00 45 1015.6
20260505193403 22 226 1.6 3.2 0.00 0.00 0.00 46 1015.7
20260505192904 22 274 0.0 3.2 0.00 0.00 0.00 45 1015.6
20260505192403 22 218 0.0 3.2 0.00 0.00 0.00 48 1015.7
20260505191404 23 280 1.6 3.2 0.00 0.00 0.00 46 1015.9
20260505190903 23 259 0.0 1.6 0.00 0.00 0.00 45 1015.9
20260505190404 23 261 1.6 3.2 0.00 0.00 0.00 47 1016.0
20260505185904 23 263 0.0 1.6 0.00 0.00 0.00 45 1016.0
20260505185403 23 264 1.6 3.2 0.00 0.00 0.00 45 1016.1
20260505184904 22 246 0.0 1.6 0.00 0.00 0.00 44 1016.1
20260505184404 23 233 1.6 3.2 0.00 0.00 0.00 42 1016.0
20260505183904 23 296 0.0 3.2 0.00 0.00 0.00 42 1016.0
20260505183404 23 277 1.6 3.2 0.00 0.00 0.00 41 1016.1
20260505182404 23 293 1.6 3.2 0.00 0.00 0.00 42 1016.1
20260505181903 23 256 1.6 3.2 0.00 0.00 0.00 44 1016.3
20260505181404 23 250 1.6 4.8 0.00 0.00 0.00 45 1016.4
20260505180903 23 236 1.6 3.2 0.00 0.00 0.00 45 1016.4
20260505180404 23 247 1.6 3.2 0.00 0.00 0.00 44 1016.5
20260505175904 23 250 1.6 3.2 0.00 0.00 0.00 45 1016.5
20260505175403 23 269 1.6 3.2 0.00 0.00 0.00 46 1016.8
20260505174903 23 279 0.0 4.8 0.00 0.00 0.00 45 1017.0
20260505174404 23 272 1.6 3.2 0.00 0.00 0.00 46 1017.0
20260505173904 23 293 1.6 3.2 0.00 0.00 0.00 48 1017.0
20260505173404 22 257 1.6 3.2 0.00 0.00 0.00 49 1017.0
20260505172904 22 260 1.6 3.2 0.00 0.00 0.00 49 1017.1
20260505172403 22 221 1.6 3.2 0.00 0.00 0.00 47 1017.0
20260505171904 23 260 1.6 3.2 0.00 0.00 0.00 45 1017.2
20260505171404 23 274 1.6 3.2 0.00 0.00 0.00 46 1017.3
20260505170403 23 253 1.6 3.2 0.00 0.00 0.00 47 1017.4
20260505165904 23 320 1.6 4.8 0.00 0.00 0.00 46 1017.3
20260505165404 23 294 0.0 3.2 0.00 0.00 0.00 48 1017.2
20260505164904 22 267 1.6 4.8 0.00 0.00 0.00 46 1017.2
20260505164404 23 262 0.0 1.6 0.00 0.00 0.00 45 1017.2
20260505163904 23 220 1.6 3.2 0.00 0.00 0.00 46 1017.1
20260505163403 22 125 1.6 3.2 0.00 0.00 0.00 44 1017.2
20260505162903 22 268 1.6 4.8 0.00 0.00 0.00 45 1017.2
20260505161904 22 319 1.6 4.8 0.00 0.00 0.00 43 1017.4
20260505161404 22 263 1.6 3.2 0.00 0.00 0.00 42 1017.3
20260505160903 22 245 1.6 3.2 0.00 0.00 0.00 47 1017.3
20260505160404 22 266 0.0 1.6 0.00 0.00 0.00 44 1017.3
20260505152904 21 280 1.6 1.6 0.00 0.00 0.00 53 1017.4
20260505152404 21 259 0.0 3.2 0.00 0.00 0.00 54 1017.4
20260505151403 20 236 1.6 1.6 0.00 0.00 0.00 56 1017.5
20260505150903 20 257 0.0 3.2 0.00 0.00 0.00 56 1017.6
20260505140404 16 319 0.0 3.2 0.00 0.00 0.00 62 1017.5
20260505124904 13 122 0.0 1.6 0.00 0.00 0.00 66 1016.9
20260505124403 13 122 0.0 3.2 0.00 0.00 0.00 66 1016.8
20260505123904 13 122 0.0 3.2 0.00 0.00 0.00 65 1016.7
20260505123403 13 122 0.0 3.2 0.00 0.00 0.00 65 1016.8
20260505122903 13 122 0.0 3.2 0.00 0.00 0.00 66 1016.8
20260505122404 13 122 0.0 3.2 0.00 0.00 0.00 65 1016.8
20260505121903 13 122 0.0 3.2 0.00 0.00 0.00 64 1016.8
20260505121403 13 122 1.6 3.2 0.00 0.00 0.00 66 1016.8
20260505120403 13 122 0.0 0.0 0.00 0.00 0.00 66 1016.8
20260505115904 13 122 0.0 0.0 0.00 0.00 0.00 64 1016.8
20260505115404 13 122 0.0 3.2 0.00 0.00 0.00 67 1016.7
20260505114903 13 123 0.0 3.2 0.00 0.00 0.00 68 1016.7
20260505113903 13 124 0.0 0.0 0.00 0.00 0.00 65 1016.4
20260505113404 13 124 0.0 0.0 0.00 0.00 0.00 64 1016.3
20260505112904 13 124 0.0 0.0 0.00 0.00 0.00 63 1016.1
20260505112404 13 124 0.0 0.0 0.00 0.00 0.00 62 1016.1
20260505111904 13 124 0.0 0.0 0.00 0.00 0.00 62 1016.0
20260505111404 13 124 0.0 3.2 0.00 0.00 0.00 62 1016.0
20260505110904 13 124 0.0 1.6 0.00 0.00 0.00 62 1015.9
20260505110403 13 124 0.0 3.2 0.00 0.00 0.00 61 1016.1
20260505101904 13 124 0.0 3.2 0.00 0.00 0.00 60 1015.8
20260505101404 13 124 0.0 3.2 0.00 0.00 0.00 60 1015.8
20260505100904 13 124 0.0 3.2 0.00 0.00 0.00 60 1016.0
20260505100404 13 124 0.0 3.2 0.00 0.00 0.00 60 1016.1
20260505095903 13 124 0.0 3.2 0.00 0.00 0.00 61 1016.2
20260505095404 13 124 0.0 3.2 0.00 0.00 0.00 61 1016.2
20260505094903 13 124 0.0 3.2 0.00 0.00 0.00 61 1016.0
20260505094404 13 124 0.0 0.0 0.00 0.00 0.00 60 1016.2
20260505093904 13 124 0.0 3.2 0.00 0.00 0.00 60 1016.2
20260505093403 13 124 0.0 3.2 0.00 0.00 0.00 60 1016.1
20260505092904 13 124 0.0 3.2 0.00 0.00 0.00 59 1016.1
20260505092404 13 124 1.6 3.2 0.00 0.00 0.00 59 1016.2
20260505091903 13 109 0.0 3.2 0.00 0.00 0.00 58 1016.2
20260505091404 13 109 0.0 3.2 0.00 0.00 0.00 58 1016.1
20260505090904 13 109 0.0 3.2 0.00 0.00 0.00 58 1016.1
20260505090404 13 91 0.0 3.2 0.00 0.00 0.00 57 1016.3
20260505085904 13 91 0.0 3.2 0.00 0.00 0.00 58 1016.3
20260505084904 13 86 0.0 3.2 0.00 0.00 0.00 59 1016.3
20260505084403 13 86 0.0 3.2 0.00 0.00 0.00 59 1016.4
20260505083403 13 86 0.0 3.2 0.00 0.00 0.00 60 1016.4
20260505082904 13 86 0.0 3.2 0.00 0.00 0.00 60 1016.4
20260505081904 13 86 0.0 1.6 0.00 0.00 0.00 60 1016.3
20260505080404 13 86 0.0 3.2 0.00 0.00 0.00 61 1016.3
20260505074904 13 86 0.0 3.2 0.00 0.00 0.00 61 1016.4
20260505073904 13 86 0.0 3.2 0.00 0.00 0.00 59 1016.4
20260505073404 14 86 0.0 3.2 0.00 0.00 0.00 58 1016.4
20260505072904 14 86 0.0 1.6 0.00 0.00 0.00 58 1016.4
20260505072404 14 86 0.0 1.6 0.00 0.00 0.00 58 1016.4
20260505071904 15 86 0.0 3.2 0.00 0.00 0.00 56 1016.4
20260505071404 14 86 0.0 3.2 0.00 0.00 0.00 57 1016.4
20260505070904 15 86 0.0 3.2 0.00 0.00 0.00 57 1016.4
20260505065904 14 86 0.0 3.2 0.00 0.00 0.00 57 1016.3
20260505065404 15 86 0.0 1.6 0.00 0.00 0.00 57 1016.3
20260505064905 15 86 0.0 3.2 0.00 0.00 0.00 57 1016.4
20260505064403 15 86 0.0 3.2 0.00 0.00 0.00 56 1016.4
20260505063404 15 86 0.0 3.2 0.00 0.00 0.00 56 1016.4
20260505062904 15 86 0.0 3.2 0.00 0.00 0.00 56 1016.4
20260505062404 15 86 0.0 3.2 0.00 0.00 0.00 56 1016.5
20260505061904 15 86 0.0 3.2 0.00 0.00 0.00 55 1016.6
20260505061404 15 86 0.0 3.2 0.00 0.00 0.00 55 1016.6
20260505060903 15 85 0.0 3.2 0.00 0.00 0.00 56 1016.6
20260505060404 15 85 0.0 3.2 0.00 0.00 0.00 56 1016.6
20260505055903 15 85 0.0 3.2 0.00 0.00 0.00 56 1016.7
20260505054404 15 68 0.0 1.6 0.00 0.00 0.00 58 1016.8
20260505053904 15 168 0.0 3.2 0.00 0.00 0.00 58 1016.8
20260505053403 15 168 0.0 1.6 0.00 0.00 0.00 57 1016.8
20260505052904 15 168 0.0 3.2 0.00 0.00 0.00 57 1016.7
20260505051904 15 169 0.0 3.2 0.00 0.00 0.00 57 1016.8
20260505051404 15 168 0.0 3.2 0.00 0.00 0.00 58 1016.9
20260505050904 15 168 0.0 3.2 0.00 0.00 0.00 57 1016.9
20260505050404 15 169 0.0 3.2 0.00 0.00 0.00 57 1016.8